Regional Weather Roundup
Issued by NWS Upton, NY

Current Version | Previous Version | Graphics & Text | Print | Product List | Glossary Off
Versions: 1 2 3 4 5 6 7 8 9 10 11 12 13 14 15 16 17 18 19 20 21 22 23 24 25 26 27 28

000
ASUS41 KOKX 140108
RWROKX

REGIONAL WEATHER ROUNDUP
NATIONAL WEATHER SERVICE NEW YORK NY
800 PM EST WED DEC 13 2017

NOTE: "FAIR" INDICATES FEW OR NO CLOUDS BELOW 12,000 FEET WITH NO
SIGNIFICANT WEATHER AND/OR OBSTRUCTIONS TO VISIBILITY.

NYZ071-072-176-178-NJZ106-104-140200-
NEW YORK CITY METRO AREA

CITY           SKY/WX    TMP DP  RH WIND       PRES   REMARKS
Central Park   PTCLDY    27   7  42 W13G22    29.69R WCI  16
Bronx Bot Gard   N/A     28   7  40 W9        29.67F WCI  20
Bronx Lehman C NOT AVBL
LaGuardia APRT PTCLDY    29   7  39 W20G26    29.68R WCI  16
Queens College NOT AVBL
Kennedy INTL   MOCLDY    28   8  43 W23       29.70R WCI  14
Breezy Point     N/A    N/A N/A N/A W15G24      N/A
Brooklyn Coll  NOT AVBL
Staten Island  NOT AVBL
Newark/Liberty MOCLDY    27   6  41 W16G24    29.69R WCI  15
Teterboro      PTCLDY    27   6  41 W12       29.68R WCI  17
$$

NYZ177-179-078>081-140200-
LONG ISLAND NEW YORK

CITY           SKY/WX    TMP DP  RH WIND       PRES   REMARKS
Jones Beach      N/A    N/A N/A N/A W21G29      N/A
Wantagh        NOT AVBL
Matinecock PT    N/A    N/A N/A N/A W28         N/A
Farmingdale    MOCLDY    27   7  42 W18G26    29.67R WCI  14
MacArthur/ISP  PTCLDY    27   8  44 W10       29.65R WCI  17
Shirley        PTCLDY    27   9  46 W13G18    29.66R WCI  16
Mt Sinai Harb    N/A    N/A N/A N/A W8G18       N/A
Westhampton    CLEAR     26   6  42 SW9       29.66R WCI  17
East Hampton   FAIR      28   8  42 W12G24    29.62S WCI  18
Southold       NOT AVBL
Montauk          N/A     32  11  41 W22G36    29.61R WCI  19
$$

NYZ052-065-067-140200-
HUDSON VALLEY

CITY           SKY/WX    TMP DP  RH WIND       PRES   REMARKS
White Plains   CLOUDY    25   4  40 W13G21    29.63R WCI  14
Larchmont Harb   N/A    N/A N/A N/A SW17G25     N/A
Croton On Huds   N/A    N/A N/A N/A W17G23      N/A
Somers         NOT AVBL
Brewster       NOT AVBL
Newburgh       CLEAR     21   9  58 W14       29.64R WCI   8
Montgomery     PTCLDY    22   4  46 W5        29.63R WCI  16
Otisville      NOT AVBL
Warwick        NOT AVBL
Suffern        NOT AVBL
Poughkeepsie   CLOUDY    23   3  42 W15G23    29.63R WCI  10
Albany         MOCLDY    20   7  57 W15G23    29.59F WCI   6
$$

NJZ001-105-106-008-010-013-015-019>022-104-140200-
NEW JERSEY

CITY           SKY/WX    TMP DP  RH WIND       PRES   REMARKS
Newark/Liberty MOCLDY    27   6  41 W16G24    29.69R WCI  15
Teterboro      PTCLDY    27   6  41 W12       29.68R WCI  17
Caldwell       PTCLDY    25   6  44 W7        29.68R WCI  17
Somerville     MOCLDY    25   7  46 VRB6      29.67F WCI  18
Linden         FAIR      27   5  38 W10G21    29.70S WCI  17
Perth Amboy      N/A    N/A N/A N/A W14         N/A
Sussex         CLOUDY    23   5  46 CALM      29.64R
Andover        NOT AVBL
Trenton        CLOUDY    27   6  41 W5        29.69F WCI  22
Millville      CLOUDY    28  11  48 CALM      29.73F
Atlantic City  CLOUDY    29   7  39 W5        29.73F WCI  24
Wrightstown    MOCLDY    26   6  41 W6        29.68F WCI  19
Toms River     CLOUDY    24   8  50 SW5       29.73F WCI  18
Belmar         CLOUDY    26   7  44 W12       29.70F WCI  16
$$

PAZ047>061-062-071-140200-
EASTERN PENNSYLVANIA

CITY           SKY/WX    TMP DP  RH WIND       PRES   REMARKS
Philadelphia   CLOUDY    29   5  36 W12       29.72F WCI  19
Allentown      CLOUDY    25   6  44 SW6       29.67F WCI  18
Scranton       CLOUDY    22   7  52 SW8       29.61F WCI  12
$$

CTZ002-004>006-009-010-012-RIZ004-006-007-MAZ004-011-015-140200-
SOUTHERN NEW ENGLAND
 IN CT

CITY           SKY/WX    TMP DP  RH WIND       PRES   REMARKS
Bradley INTL   PTCLDY    20   7  57 NW7       29.60R WCI  11
Hartford       CLEAR     24   5  44 W9G21     29.61R WCI  14
Danbury        PTCLDY    24   3  40 W12G20    29.62R WCI  13
Wtrbury/Oxford CLEAR     21   4  47 W12G21    29.59R WCI   9
Norwalk Harbor   N/A    N/A N/A N/A W13         N/A
Bridgeport     CLEAR     27   5  39 W13G24    29.65R WCI  16
Meriden        CLEAR     24   3  40 W13       29.61R WCI  12
New Haven      PTCLDY    28   5  37 W10G20    29.64R WCI  19
Chester        FAIR      23   3  42 VRB7G20   29.58R WCI  15
Groton         CLEAR     26   5  40 W16G23    29.59R WCI  14
Wilimantic     CLEAR     24   6  46 W7        29.58R WCI  16

 IN RI

CITY           SKY/WX    TMP DP  RH WIND       PRES   REMARKS
Providence     PTCLDY    24   9  52 W17G23    29.56R WCI  11
Block Island   CLEAR     29  13  51 W28G37    29.59R WCI  14
Westerly       CLEAR     26   6  42 W10G20    29.59R WCI  16
 IN MA

CITY           SKY/WX    TMP DP  RH WIND       PRES   REMARKS
Boston         PTCLDY    24  10  55 W20G32    29.48R WCI  10
Worcester      CLEAR     17   5  59 W31G47    29.43R WCI  -3
Westfield      MOCLDY    20   7  57 W20G29    29.58R WCI   4
Provincetown   PTCLDY    25  14  63 W29G38      N/A  WCI   8
Nantucket      PTCLDY    29  16  58 W30G41    29.53R WCI  13
$$

ANZ330-335-338-340-345-350-353-355-140200-
COASTAL MARINE OBSERVATIONS


STATION/POSITION TIME  SKY/WX   TEMP    WIND        PRES    VSBY  WAVE
                                AIR SEA DIR/SP/G                  HT/PER
                 (UTC)          (F)     (DEG/KT/KT) (MB)    (MI)  (FT/S)
NY HARB ENTRANCE 2350            32 52  270/ 25/ 33 1004.4          5/ 4
20 S FIRE ISLAND 2350            33 52  280/ 25/ 31 1004.5          9/ 6
GREAT SOUTH BAY  0030            30 45  260/ 21/ 25   N/A
HUDSON CANYON    2350            36 56  280/ 23/ 29 1004.7         11/ 8
KINGS POINT      0024            30 42  310/ 19/ 23 1005.1
EXECUTION ROCKS  0030            31     230/ 19/ 25   N/A
WESTERN LI SOUND NOT AVBL
CENTRAL LI SOUND NOT AVBL
ROBBINS REEF     0024            28     260/ 23/ 26 1005.7
$$


>>>>>>>>>>>>>>>>>>>>>>>>>>>> KEY <<<<<<<<<<<<<<<<<<<<<<<<<<<
>                                                          <
>     SKY/WX - Sky Condition/Present Weather               <
>     TMP    - Temperature in Fahrenheit                   <
>     DP     - Dew Point in Fahrenheit                     <
>     RH     - Relative Humidity in Percent                <
>     WIND   - Direction (from) and Speed in MPH           <
>     PRES   - Mean Sea Level Pressure (inches of Hg)      <
>     WCI    - Wind Chill Index                            <
>     VSB    - VISIBILITY IN MILES                         <
>     HX     - HEAT INDEX                                  <
>     TC     - TEMPERATURE IN CELSIUS                      <
>     VRB    - VARIABLE WIND DIRECTION                     <
>                                                          <
>>>>>>>>>>>>>>>>>>>>>>>>>>>> KEY <<<<<<<<<<<<<<<<<<<<<<<<<<<




USA.gov is the U.S. government's official web portal to all federal, state and local government web resources and services.